Regional Weather Roundup
Issued by NWS

Home | Current Version | Previous Version | Graphics & Text | Print | Product List | Glossary On
Versions: 1 2 3 4 5 6 7 8 9 10 11 12 13 14 15 16 17 18 19 20 21 22 23 24 25 26 27 28
000
ASUS45 KCYS 241210
RWRWY

WYOMING REGIONAL WEATHER ROUNDUP
NATIONAL WEATHER SERVICE CHEYENNE WY
600 AM MDT MON APR 24 2017

NOTE:  "FAIR" INDICATES FEW OR NO CLOUDS BELOW 12,000 FEET
WITH NO SIGNIFICANT WEATHER AND/OR OBSTRUCTIONS TO VISIBILITY.

WYZ001-241300-
YELLOWSTONE NATIONAL PARK

CITY           SKY/WX    TMP DP  RH WIND       PRES   REMARKS
LK YELLOWSTONE   N/A     26  26 100 CALM      29.75F
6HR MIN TEMP:  23; 6HR MAX TEMP:  27;

W YELLOWSTONE  NOT AVBL

$$
WYZ002>013-054>058-071-098>099-241300-
NORTHERN WYOMING

CITY           SKY/WX    TMP DP  RH WIND       PRES   REMARKS
JACKSON        MOCLDY    34  34 100 CALM      29.75S
CODY           MOCLDY    43  32  65 NW3       29.69F
GREYBULL       FAIR      41  36  82 VRB3      29.67S
6HR MIN TEMP:  40; 6HR MAX TEMP:  51;

WORLAND        FAIR      41  38  89 S10       29.68S
6HR MIN TEMP:  38; 6HR MAX TEMP:  49;

SHERIDAN       FAIR      35  33  92 SW6       29.67S WCI  30
6HR MIN TEMP:  34; 6HR MAX TEMP:  47;

BUFFALO        FAIR      40  34  79 W7        29.68R
6HR MIN TEMP:  36; 6HR MAX TEMP:  47;

GILLETTE       FAIR      36  34  92 W8        29.66R WCI  30
6HR MIN TEMP:  35; 6HR MAX TEMP:  50; 6HR PCP: TRACE;

HULETT         CLOUDY    43  41  93 SW6       29.65S
NEWCASTLE      FAIR      41  39  93 NW14      29.64R

$$
WYZ014>020-022>026-101>103-241300-
CENTRAL WYOMING

CITY           SKY/WX    TMP DP  RH WIND       PRES   REMARKS
BIG PINEY      FAIR      30  26  85 NE9       29.80R WCI  22
6HR MIN TEMP:  25; 6HR MAX TEMP:  35;

PINEDALE       PTSUNNY   30  30 100 W5        29.81R WCI  25
DUBOIS         CLOUDY    32  27  80 CALM      29.72F
LANDER         CLOUDY    39  27  62 NW6       29.70S WCI  35
6HR MIN TEMP:  39; 6HR MAX TEMP:  46;

RIVERTON       FAIR      40  30  67 SW5       29.71F
6HR MIN TEMP:  38; 6HR MAX TEMP:  44;

CASPER         FAIR      32  31  96 W6        29.71F WCI  26
6HR MIN TEMP:  32; 6HR MAX TEMP:  52;

DOUGLAS        FAIR      38  36  92 W8        29.71R WCI  32
6HR MIN TEMP:  38; 6HR MAX TEMP:  54;


$$
WYZ021-027>030-104>119-241300-
SOUTHERN WYOMING

CITY           SKY/WX    TMP DP  RH WIND       PRES   REMARKS
EVANSTON       FAIR      35  31  85 SW8       29.79F WCI  29
6HR MIN TEMP:  32; 6HR MAX TEMP:  37;

KEMMERER         N/A     32  28  86 N5        29.79F WCI  27
ROCK SPRINGS   FAIR      36  31  82 S7        29.79F WCI  30
6HR MIN TEMP:  35; 6HR MAX TEMP:  39;

DIXON            N/A     35  33  93 E3        29.85S
RAWLINS        FAIR      37  32  82 W10       29.79F WCI  30
6HR MIN TEMP:  36; 6HR MAX TEMP:  41; 6HR PCP:  0.04;

SARATOGA       FAIR      34  34 100 CALM      29.81F
LARAMIE        FAIR      34  30  85 NW9       29.75R WCI  27
6HR MIN TEMP:  34; 6HR MAX TEMP:  46; 6HR PCP:  0.01;

CHEYENNE       FAIR      42  34  73 NW8       29.71S
6HR MIN TEMP:  42; 6HR MAX TEMP:  52;

TORRINGTON     FAIR      51  36  56 NW14      29.61F
6HR MIN TEMP:  51; 6HR MAX TEMP:  57;

PINE BLUFFS    FAIR      45  36  70 NW17      29.68S

$$




USA.gov is the U.S. government's official web portal to all federal, state and local government web resources and services.